Back to catalog

COSMOS 886 DEB

AliveLEO
NORAD 9960·DEBRIS·🇷🇺 Russia

Launched Dec 27, 1976 from Baikonur Cosmodrome

Loading…

Next Passes (next 24 hours)

TLE

FreshSource: Space-Track

Epoch: Sep 14, 2026, 02:58 UTC

1 09960U 76126BA  26257.12395252  .00000167  00000-0  17011-3 0  9994
2 09960  65.8672 158.7970 0856207 288.2190  62.7531 12.89834910289700

Track COSMOS 886 DEB in real time with AllMySat

Download on the App Store